Theta_e
315 309 307 305 297 294 290 294 297 299 299 303 306 305 307 309 304 297 323 331 336 339 341 343 346 344 342 344 343 343 344 344 341 340 339 341 342 346 347 347 348 347 343 343 343 343 343 341 340
310 310 308 300 293 289 290 294 298 300 307 310 307 309 309 306 317 320 323 336 338 339 341 341 344 345 342 343 344 343 344 345 340 338 338 340 338 339 342 344 347 345 343 341 341 343 342 341 340
310 308 303 296 290 288 290 294 298 303 308 301 306 310 310 311 318 322 327 337 338 338 339 340 344 346 343 343 343 342 343 342 340 338 338 337 337 337 337 338 342 342 342 341 341 341 341 340 339
306 305 300 293 290 292 293 296 301 302 300 307 308 307 312 321 323 326 337 336 335 335 337 340 345 346 345 343 343 341 340 341 339 338 337 337 336 336 336 335 336 337 339 340 339 340 340 339 338
304 302 295 291 292 294 294 302 301 299 299 301 304 305 309 320 327 334 336 335 332 332 335 338 344 345 346 344 343 342 340 339 340 337 336 335 336 335 335 334 334 334 336 339 339 339 339 337 336
300 298 292 291 292 293 297 302 300 297 300 306 309 309 311 321 329 333 333 331 332 332 334 337 336 340 343 344 343 343 341 339 339 338 337 336 335 335 334 334 335 334 335 338 337 337 337 336 334
299 296 292 289 291 293 300 301 298 298 301 302 312 306 308 317 327 332 331 330 331 332 333 332 334 336 336 339 340 340 340 339 339 339 339 338 337 337 335 336 335 334 337 337 335 335 335 334 333
301 299 292 289 292 293 298 300 300 299 298 308 312 306 309 317 327 330 329 328 329 329 330 329 330 333 333 335 333 335 336 337 337 335 333 331 332 332 332 330 334 335 335 335 334 333 332 331 330
302 296 291 293 293 294 297 297 297 298 304 300 305 311 314 324 330 329 329 330 329 330 328 328 327 329 330 331 330 330 331 332 331 328 326 324 325 325 326 328 332 333 334 333 331 330 328 325 325
299 294 294 297 297 294 296 297 297 298 298 302 307 314 320 327 327 325 325 325 325 326 328 327 327 327 328 332 333 334 330 327 326 325 322 323 323 323 325 324 327 329 330 332 331 327 322 319 317
298 294 297 297 297 298 296 295 297 297 295 302 307 312 319 324 325 325 325 326 325 325 327 327 326 326 326 327 328 333 334 326 324 322 321 321 322 321 321 320 319 318 319 318 318 314 313 314 315
295 298 299 299 298 297 296 297 295 297 298 300 309 316 320 322 323 324 325 327 327 327 327 326 326 326 325 326 325 329 331 331 324 322 322 320 319 318 318 317 316 315 314 313 313 311 312 312 314
297 298 298 298 297 297 297 296 295 295 295 301 315 317 318 321 323 325 327 328 328 326 327 326 326 326 325 324 324 324 328 330 324 323 323 322 319 317 317 316 315 314 313 311 310 310 311 311 312
299 299 296 296 295 296 295 293 295 296 301 312 315 315 316 319 321 322 324 326 326 327 326 327 326 327 326 325 324 324 323 327 325 323 323 323 320 318 316 315 315 314 314 314 312 311 311 310 310
297 296 296 294 295 295 296 291 293 294 300 311 313 314 315 317 318 320 324 325 326 327 327 328 327 327 326 325 325 324 324 324 324 324 324 324 321 319 318 316 315 315 315 313 312 310 310 309 310
294 293 290 291 294 294 295 289 296 295 299 307 310 311 313 315 317 320 322 325 326 328 327 328 330 327 327 326 325 325 325 323 323 324 325 326 327 324 320 318 317 316 315 313 311 309 308 308 307
292 286 285 289 293 292 292 290 295 293 297 299 307 309 312 313 315 317 319 322 324 328 328 327 329 327 327 327 327 326 326 325 325 324 325 329 329 327 324 322 320 316 314 312 310 309 308 307 307
288 286 286 287 291 289 289 291 294 292 294 297 300 306 309 311 315 318 317 319 320 325 328 329 329 329 328 328 326 326 330 330 330 329 329 329 329 328 326 324 323 319 316 314 311 309 310 310 309
294 291 286 287 291 290 289 291 295 292 290 290 293 297 302 305 313 313 315 317 317 319 322 328 328 328 328 326 326 325 328 330 330 331 330 329 329 327 326 325 323 321 318 317 315 313 312 310 309
288 287 291 290 291 289 286 288 292 290 291 291 292 292 296 298 298 297 303 309 313 316 321 323 327 328 328 329 329 325 325 323 325 328 330 330 328 328 326 325 323 322 319 317 315 312 310 310 309
286 284 284 287 289 289 286 286 289 289 290 291 291 292 292 294 296 294 295 297 305 311 316 322 325 328 328 329 325 320 322 321 325 326 326 327 329 328 327 326 325 323 321 319 317 314 312 311 309
287 290 289 287 287 284 284 281 286 288 288 290 292 291 292 293 293 293 293 292 296 307 312 320 322 325 327 327 326 325 325 324 324 325 326 323 324 327 327 327 326 324 322 320 319 316 315 314 311
287 291 289 287 285 283 281 278 283 284 286 286 290 292 293 295 294 293 293 293 294 299 303 310 316 318 321 326 326 324 322 324 319 320 323 324 325 326 326 325 325 323 322 321 319 315 315 314 314
292 289 289 286 284 279 285 280 280 284 287 288 289 293 295 296 292 292 291 294 296 297 298 299 302 308 315 320 323 323 322 318 319 320 323 324 324 323 324 323 323 322 321 320 319 318 315 313 314
290 288 279 279 278 277 277 278 286 287 286 288 290 290 290 289 290 292 293 295 297 299 300 302 301 300 299 304 320 322 322 319 320 321 322 321 321 320 321 321 320 320 320 319 318 317 315 313 311
289 288 279 272 272 276 279 277 283 288 290 288 289 289 290 290 290 292 294 296 297 299 301 301 300 300 299 297 298 312 323 323 322 320 320 319 317 319 319 319 319 319 319 318 317 315 312 312 311
285 284 288 279 270 273 277 280 286 287 288 288 290 290 291 291 292 293 295 296 296 299 301 302 302 301 301 302 302 301 315 318 318 317 315 316 314 313 314 313 312 312 312 312 311 309 307 305 303
287 289 281 280 270 270 276 277 281 282 288 290 288 291 291 291 293 293 294 295 295 297 300 300 301 301 302 302 304 305 310 315 315 314 311 310 308 308 307 305 304 303 302 304 303 301 299 296 293
283 283 282 284 279 274 271 277 283 287 287 287 289 291 292 292 293 293 294 294 295 296 298 298 298 299 299 299 301 304 305 306 307 306 305 303 302 301 299 298 297 296 295 295 294 293 291 289 288
283 284 285 281 278 277 278 280 284 286 286 288 289 291 291 292 293 294 294 294 294 295 295 296 296 296 296 295 295 297 297 298 298 297 296 298 295 295 294 293 291 291 290 290 288 287 287 287 286
Wind_Speed
6 4 2 6 6 6 0 1 1 2 1 1 4 5 6 3 3 3 1 4 8 6 6 6 12 14 13 11 14 12 12 16 16 15 14 14 13 16 14 15 16 17 17 16 16 17 18 18 18
5 2 5 3 6 4 5 3 5 3 5 7 6 4 4 3 2 5 5 6 7 7 6 6 12 14 13 12 13 12 13 15 15 15 16 15 13 12 13 15 15 18 17 14 16 16 17 17 17
2 4 5 5 3 3 3 3 3 3 5 2 5 4 3 2 2 7 4 9 8 6 5 6 12 15 13 13 13 12 12 14 13 15 14 15 15 14 12 11 14 16 14 14 15 15 16 17 16
3 5 5 5 1 3 5 3 3 6 2 3 4 7 2 3 8 6 10 10 9 5 6 5 11 14 14 13 13 13 13 12 12 14 13 13 14 14 13 12 12 12 12 14 14 13 14 17 16
4 3 4 3 3 3 3 4 5 3 3 2 1 4 3 1 6 13 13 8 11 6 5 4 10 12 12 13 13 13 13 12 12 12 13 13 13 13 12 12 12 12 11 16 14 14 15 15 14
4 3 4 2 3 2 2 6 3 1 1 4 6 5 4 1 9 11 10 7 6 8 5 4 7 8 10 12 12 12 12 12 12 12 12 12 12 12 12 12 11 13 11 14 14 13 13 13 12
5 4 4 4 2 3 3 4 4 4 2 3 9 5 1 2 4 8 9 9 6 6 5 4 5 6 7 9 10 10 11 10 10 10 10 9 10 10 10 9 10 12 11 12 12 13 13 13 11
5 3 4 3 3 3 4 5 4 5 3 1 2 6 5 6 8 9 8 7 7 4 6 3 4 6 5 6 8 8 9 10 10 10 9 9 10 9 9 8 9 11 10 10 10 12 12 12 10
3 3 3 6 5 4 3 4 1 1 6 0 1 5 2 16 12 11 11 7 9 6 5 5 2 4 5 4 5 7 7 7 8 7 8 7 4 5 6 6 7 8 9 9 10 10 9 9 10
4 3 7 6 5 3 4 3 8 5 3 2 1 4 8 17 17 16 14 13 13 12 9 6 5 5 5 4 4 5 4 4 4 4 4 4 4 4 4 5 6 6 7 8 8 9 8 6 4
3 4 5 3 3 4 3 3 6 7 3 8 10 8 11 15 16 16 15 14 13 8 8 7 7 6 5 4 3 2 2 3 3 5 4 3 3 3 3 2 2 2 4 3 4 4 3 4 3
4 7 5 3 2 4 4 4 6 7 7 5 10 15 14 16 17 18 17 16 15 13 12 7 6 6 6 3 3 3 3 3 3 4 5 3 2 2 2 1 1 1 1 2 2 2 3 3 3
3 2 3 3 1 4 5 7 4 8 0 2 10 13 14 15 13 10 12 14 14 13 13 10 9 8 6 6 4 4 4 4 4 4 4 4 3 3 2 2 1 0 0 0 1 2 2 3 4
1 3 3 3 2 2 4 2 5 5 5 6 11 15 12 15 15 7 10 15 16 12 11 10 10 9 7 6 7 5 4 5 4 4 5 5 4 3 3 3 2 2 1 1 0 1 2 3 3
2 2 8 4 2 4 4 3 9 4 6 9 9 10 9 11 9 16 15 13 13 11 11 12 12 9 10 8 6 5 5 5 4 4 5 5 5 5 4 3 3 3 2 2 0 1 2 2 3
6 6 3 2 3 2 6 8 10 7 9 9 9 8 8 8 12 12 11 11 10 9 12 11 10 11 10 9 7 5 5 4 4 4 4 6 7 6 5 4 4 3 3 2 1 0 2 2 2
5 5 4 4 2 0 3 5 6 6 8 8 9 8 8 8 7 8 8 11 10 11 10 10 11 12 12 8 6 6 7 5 5 4 4 7 6 6 5 4 3 4 3 2 2 2 2 1 2
7 5 4 5 3 1 4 7 7 4 7 11 9 8 9 9 16 10 8 7 8 9 10 10 10 11 11 7 4 3 5 6 6 6 5 6 5 7 6 4 4 4 3 3 3 4 3 3 2
5 4 5 3 2 3 6 8 13 4 4 7 8 9 9 11 11 6 7 9 7 7 8 11 11 11 8 5 6 5 7 5 5 5 7 7 6 6 6 4 4 5 5 5 4 2 3 1 1
3 4 5 4 3 1 2 10 12 6 6 9 11 8 12 7 8 7 7 7 9 10 11 10 12 11 11 8 7 4 5 3 3 4 6 8 8 7 6 7 6 6 4 4 4 4 2 2 3
3 4 4 2 2 1 5 7 9 4 5 6 8 9 6 11 14 9 9 11 9 10 12 12 13 12 11 12 4 3 3 2 3 2 3 5 8 8 8 8 7 7 6 6 6 5 7 4 2
5 5 3 5 4 4 1 10 9 6 10 8 12 9 11 12 10 9 9 9 11 14 9 10 10 11 11 11 9 11 9 8 5 6 5 5 6 6 8 9 8 7 5 6 7 5 4 3 4
4 4 3 4 4 4 4 4 6 2 10 8 11 12 13 16 14 12 12 10 8 8 8 7 7 7 7 11 11 9 8 7 3 3 6 5 5 5 6 7 7 7 5 4 4 4 6 5 3
9 5 6 5 4 5 17 6 6 9 10 7 8 13 15 15 10 10 5 5 5 5 6 7 8 7 7 9 11 12 12 8 6 4 5 5 4 4 5 5 5 4 4 5 4 4 5 5 4
8 12 2 2 5 10 3 7 19 7 8 7 10 8 8 9 9 10 10 8 7 8 7 6 8 7 6 7 8 10 10 9 11 9 6 5 4 3 4 4 4 3 4 5 4 4 4 3 3
15 14 7 8 6 3 4 10 10 11 7 8 8 8 5 7 6 7 7 7 8 7 7 7 7 6 6 6 7 5 8 7 6 6 4 3 4 4 4 4 4 4 4 4 4 3 3 4 3
7 18 8 5 3 3 7 8 11 9 10 8 11 7 9 6 6 6 6 6 6 6 6 7 6 4 5 6 5 7 7 7 6 5 4 3 5 3 6 5 5 5 5 6 6 5 6 7 6
11 11 6 1 3 5 5 5 8 1 10 12 9 14 7 4 6 5 6 6 4 4 3 3 3 4 3 3 2 3 6 6 6 6 7 8 6 6 7 7 7 7 8 6 7 6 6 8 5
5 8 3 3 5 6 1 8 9 12 4 7 8 6 8 8 7 5 4 3 4 4 4 4 4 4 3 3 3 3 4 5 7 7 7 8 8 8 7 7 8 7 7 7 8 7 7 8 7
2 8 12 9 13 2 3 10 3 7 3 3 7 6 3 5 6 6 6 6 5 5 4 4 4 4 4 4 5 5 5 7 8 7 6 5 10 8 8 8 9 8 7 7 8 8 6 7 7
Wind_Direction
337 345 64 42 53 66 343 233 77 136 121 90 110 131 160 73 140 191 12 140 133 128 135 117 123 115 112 100 97 99 94 103 89 87 86 81 76 87 90 97 94 87 85 83 84 86 89 84 81
331 349 42 69 80 61 284 276 156 208 146 120 78 74 58 69 82 111 113 149 140 133 126 133 127 120 115 104 101 91 87 91 87 89 92 87 88 91 87 73 81 98 88 83 82 93 90 87 86
310 27 77 84 104 145 221 239 159 87 153 140 106 66 118 152 58 158 142 138 125 124 123 142 134 127 122 116 108 102 97 90 100 95 92 93 92 92 90 75 51 65 79 84 81 93 94 90 85
15 11 37 78 191 234 187 196 162 143 234 80 128 70 48 240 156 168 137 131 119 122 123 153 136 133 129 121 116 112 105 104 100 100 98 92 91 93 88 87 75 70 75 85 83 71 85 90 85
37 47 63 89 267 268 261 139 154 181 151 110 153 139 61 26 113 133 140 133 134 130 129 150 134 129 132 128 125 119 116 115 108 105 104 101 98 96 94 96 92 94 96 86 82 78 78 85 87
48 88 68 192 254 284 283 145 156 119 261 154 84 104 166 82 135 147 128 117 121 132 140 138 126 127 129 133 127 123 121 121 117 114 114 111 106 101 98 94 94 97 103 91 84 83 87 90 90
106 86 190 169 245 349 183 147 166 142 158 229 155 108 183 190 157 132 129 119 116 120 130 134 133 126 116 133 127 125 126 123 121 113 94 105 95 94 89 84 99 103 99 98 88 85 86 84 83
111 95 128 214 177 254 181 165 129 150 195 55 181 169 194 195 143 117 110 111 112 121 125 141 135 133 129 133 130 130 129 123 116 111 104 95 101 98 91 73 74 96 96 98 84 79 78 73 67
144 87 188 195 158 234 135 158 116 97 117 256 292 154 245 133 134 140 140 130 152 161 146 135 166 138 132 133 139 127 124 122 117 110 113 97 103 97 94 109 100 97 99 95 87 77 73 65 54
93 134 213 207 187 192 187 169 164 141 131 231 293 27 127 143 157 163 167 168 177 176 183 163 163 167 142 130 146 134 129 125 123 120 112 110 112 115 104 94 91 84 87 85 85 71 61 56 54
114 216 203 247 200 149 188 209 171 126 221 211 192 162 165 160 167 170 179 180 184 173 173 187 163 167 162 146 146 130 125 131 137 142 131 120 98 98 96 91 65 64 64 59 67 54 60 66 70
170 230 211 174 193 119 191 141 188 185 219 212 189 163 160 172 179 177 181 184 183 186 188 177 169 164 169 154 154 152 164 156 167 164 150 135 126 126 124 128 131 82 32 57 41 33 30 36 43
186 259 223 229 193 261 145 206 207 221 295 65 133 153 181 180 183 186 182 181 186 193 190 184 169 172 179 167 164 163 182 191 183 169 174 155 161 171 159 172 170 168 98 54 350 3 10 6 2
230 227 296 283 234 197 208 189 146 228 125 133 157 176 181 187 186 170 187 185 191 186 189 172 183 181 169 184 177 180 170 193 183 180 182 177 175 179 188 181 194 207 207 226 258 329 348 343 354
66 61 316 259 217 225 171 253 209 156 142 164 190 190 187 193 180 195 194 194 189 191 176 180 180 182 178 192 188 177 184 178 189 194 187 184 180 188 195 198 202 207 197 218 300 348 356 343 337
151 115 226 299 171 263 128 278 264 158 147 195 202 198 207 212 210 201 198 201 192 187 182 181 179 185 190 185 183 181 182 183 191 194 183 195 196 192 188 194 210 199 185 183 197 208 307 288 284
350 152 173 295 173 186 137 254 284 172 165 206 214 205 207 228 247 225 201 200 190 191 190 186 183 182 191 193 181 182 181 184 197 189 195 207 194 188 186 197 211 179 173 186 200 216 192 245 283
169 153 176 205 195 184 196 255 275 274 190 207 206 220 221 220 231 224 206 201 196 198 195 192 188 194 187 184 170 168 193 198 192 188 191 193 193 192 188 195 190 173 174 199 208 220 212 228 244
160 163 169 196 181 206 229 226 243 247 248 256 226 219 225 227 245 215 210 192 193 208 191 197 187 194 181 177 181 193 206 196 201 189 191 194 199 195 187 187 182 174 191 208 196 201 241 290 165
147 192 225 302 36 180 299 255 255 188 234 216 222 229 227 227 241 228 223 209 192 202 197 201 201 193 193 195 200 178 173 198 179 186 204 195 192 196 188 190 196 186 190 200 196 187 188 236 189
173 146 149 204 121 338 334 271 264 238 224 235 234 221 221 218 238 232 216 214 197 200 200 201 201 195 195 195 145 103 89 91 151 175 212 216 202 197 193 197 197 198 186 205 197 188 193 207 170
186 185 127 96 73 212 238 268 246 242 242 225 240 218 229 224 230 228 213 214 208 213 190 198 197 191 193 182 186 193 200 205 202 195 205 186 205 219 200 207 205 201 198 209 208 191 200 170 220
165 140 85 82 107 22 237 274 260 210 243 234 241 234 231 231 219 222 220 213 209 175 185 187 180 177 173 185 193 192 198 198 164 168 191 202 211 208 212 201 197 199 196 211 186 172 193 196 182
148 89 58 48 54 256 236 209 242 211 228 244 229 238 234 232 217 220 196 170 174 154 161 164 179 198 177 178 191 195 203 180 177 188 189 194 207 194 219 200 187 185 185 185 199 200 196 192 204
152 127 105 201 207 237 100 172 244 253 245 231 232 253 271 260 216 205 183 186 173 173 168 165 174 192 190 197 199 199 206 190 195 195 196 178 179 195 226 177 177 180 194 185 183 185 182 176 171
183 172 168 178 204 215 130 231 249 223 262 237 241 255 256 262 239 212 178 173 168 171 164 164 178 187 192 200 214 231 212 201 200 194 177 185 158 154 144 150 158 181 170 163 148 115 105 118 116
161 215 177 104 20 49 203 283 304 232 255 246 251 248 246 232 218 194 161 167 162 166 174 170 174 183 190 208 203 208 214 197 183 159 135 124 109 112 100 93 94 82 83 87 84 89 87 81 59
186 164 175 146 165 244 265 280 232 288 227 230 230 226 231 196 186 171 177 167 157 140 130 143 157 165 156 153 179 191 200 183 141 131 125 112 104 94 95 92 81 73 61 68 84 81 73 86 66
135 194 209 164 165 183 253 256 220 217 230 288 287 253 222 195 186 181 176 161 142 122 130 136 133 139 127 120 110 120 108 109 105 107 105 112 103 93 89 93 90 84 86 79 84 79 82 89 87
187 184 189 200 217 227 179 261 192 238 272 305 301 279 212 172 179 171 171 160 159 153 141 148 134 124 101 92 93 79 80 90 95 93 91 116 105 92 98 93 91 87 84 82 94 95 86 86 78